Time,TemperatureF,DewpointF,PressureIn,WindDirection,WindDirectionDegrees,WindSpeedMPH,WindSpeedGustMPH,Humidity,HourlyPrecipIn,Conditions,Clouds,dailyrainin,SolarRadiationWatts/m^2,SoftwareType,DateUTC
2013-09-08 00:03:00,63.0,56.0,-100.00,West,261,3.0,7.0,79,0.00,,,0.04,0.000000,,2013-09-08 06:03:00,
2013-09-08 00:13:00,63.0,56.0,-100.00,West,261,3.0,7.0,79,0.00,,,0.04,0.000000,,2013-09-08 06:13:00,
2013-09-08 00:21:00,63.0,56.0,-100.00,West,261,3.0,7.0,79,0.00,,,0.04,0.000000,,2013-09-08 06:21:00,
2013-09-08 00:30:00,62.0,57.0,-100.00,WNW,295,2.0,6.0,84,0.00,,,0.04,0.000000,,2013-09-08 06:30:00,
2013-09-08 00:53:00,62.0,57.0,-100.00,WNW,295,2.0,6.0,84,0.00,,,0.04,0.000000,,2013-09-08 06:53:00,
2013-09-08 01:01:00,62.0,57.0,-100.00,WNW,295,2.0,6.0,84,0.00,,,0.04,0.000000,,2013-09-08 07:01:00,
2013-09-08 01:12:00,62.0,57.0,-100.00,WNW,295,2.0,6.0,84,0.00,,,0.04,0.000000,,2013-09-08 07:12:00,
2013-09-08 01:23:00,62.0,57.0,-100.00,WNW,295,2.0,6.0,84,0.00,,,0.04,0.000000,,2013-09-08 07:23:00,
2013-09-08 01:30:00,61.0,57.0,-100.00,NW,305,4.0,6.0,88,0.00,,,0.04,0.000000,,2013-09-08 07:30:00,
2013-09-08 01:52:00,61.0,57.0,-100.00,NW,305,4.0,6.0,88,0.00,,,0.04,0.000000,,2013-09-08 07:52:00,
2013-09-08 02:02:00,61.0,57.0,-100.00,NW,305,4.0,6.0,88,0.00,,,0.04,0.000000,,2013-09-08 08:02:00,
2013-09-08 02:11:00,61.0,57.0,-100.00,NW,305,4.0,6.0,88,0.00,,,0.04,0.000000,,2013-09-08 08:11:00,
2013-09-08 02:22:00,61.0,57.0,-100.00,NW,305,4.0,6.0,88,0.00,,,0.04,0.000000,,2013-09-08 08:22:00,
2013-09-08 02:30:00,62.0,59.0,-100.00,West,267,3.0,5.0,89,0.00,,,0.04,0.000000,,2013-09-08 08:30:00,
2013-09-08 02:52:00,62.0,59.0,-100.00,West,267,3.0,5.0,89,0.00,,,0.04,0.000000,,2013-09-08 08:52:00,
2013-09-08 03:02:00,62.0,59.0,-100.00,West,267,3.0,5.0,89,0.00,,,0.04,0.000000,,2013-09-08 09:02:00,
2013-09-08 03:11:00,62.0,59.0,-100.00,West,267,3.0,5.0,89,0.00,,,0.04,0.000000,,2013-09-08 09:11:00,
2013-09-08 03:22:00,62.0,59.0,-100.00,West,267,3.0,5.0,89,0.00,,,0.04,0.000000,,2013-09-08 09:22:00,
2013-09-08 03:30:00,61.0,58.0,-100.00,WNW,282,4.0,5.0,90,0.00,,,0.04,0.000000,,2013-09-08 09:30:00,
2013-09-08 03:54:00,61.0,58.0,-100.00,WNW,282,4.0,5.0,90,0.00,,,0.04,0.000000,,2013-09-08 09:54:00,
2013-09-08 04:03:00,61.0,58.0,-100.00,WNW,282,4.0,5.0,90,0.00,,,0.04,0.000000,,2013-09-08 10:03:00,
2013-09-08 04:12:00,61.0,58.0,-100.00,WNW,282,4.0,5.0,90,0.00,,,0.04,0.000000,,2013-09-08 10:12:00,
2013-09-08 04:23:00,61.0,58.0,-100.00,WNW,282,4.0,5.0,90,0.00,,,0.04,0.000000,,2013-09-08 10:23:00,
2013-09-08 04:30:00,61.0,59.0,-100.00,WNW,293,4.0,5.0,94,0.00,,,0.03,0.000000,,2013-09-08 10:30:00,
2013-09-08 05:12:00,61.0,59.0,-100.00,WNW,293,4.0,5.0,94,0.00,,,0.03,0.000000,,2013-09-08 11:12:00,
2013-09-08 05:21:00,61.0,59.0,-100.00,WNW,293,4.0,5.0,94,0.00,,,0.03,0.000000,,2013-09-08 11:21:00,
2013-09-08 05:30:00,61.0,59.0,-100.00,WNW,303,2.0,6.0,92,0.00,,,0.02,0.000000,,2013-09-08 11:30:00,
2013-09-08 05:52:00,61.0,59.0,-100.00,WNW,303,2.0,6.0,92,0.00,,,0.02,0.000000,,2013-09-08 11:52:00,
2013-09-08 06:02:00,61.0,59.0,-100.00,WNW,303,2.0,6.0,92,0.00,,,0.02,0.000000,,2013-09-08 12:02:00,
2013-09-08 06:12:00,61.0,59.0,-100.00,WNW,303,2.0,6.0,92,0.00,,,0.02,0.000000,,2013-09-08 12:12:00,
2013-09-08 06:21:00,61.0,59.0,-100.00,WNW,303,2.0,6.0,92,0.00,,,0.02,0.000000,,2013-09-08 12:21:00,
2013-09-08 06:30:00,62.0,60.0,-100.00,West,268,2.0,3.0,92,0.00,,,0.01,0.000000,,2013-09-08 12:30:00,
2013-09-08 06:52:00,62.0,60.0,-100.00,West,268,2.0,3.0,92,0.00,,,0.01,0.000000,,2013-09-08 12:52:00,
2013-09-08 07:01:00,62.0,60.0,-100.00,West,268,2.0,3.0,92,0.00,,,0.01,0.000000,,2013-09-08 13:01:00,
2013-09-08 07:11:00,62.0,60.0,-100.00,West,268,2.0,3.0,92,0.00,,,0.01,0.000000,,2013-09-08 13:11:00,
2013-09-08 07:22:00,62.0,60.0,-100.00,West,268,2.0,3.0,92,0.00,,,0.01,0.000000,,2013-09-08 13:22:00,
2013-09-08 07:30:00,62.0,60.0,-100.00,West,274,3.0,4.0,94,0.00,,,-99.99,5.000000,,2013-09-08 13:30:00,
2013-09-08 07:52:00,62.0,60.0,-100.00,West,274,3.0,4.0,94,0.00,,,-99.99,5.000000,,2013-09-08 13:52:00,
2013-09-08 08:02:00,62.0,60.0,-100.00,West,274,3.0,4.0,94,0.00,,,-99.99,5.000000,,2013-09-08 14:02:00,
2013-09-08 08:11:00,62.0,60.0,-100.00,West,274,3.0,4.0,94,0.00,,,-99.99,5.000000,,2013-09-08 14:11:00,
2013-09-08 08:22:00,62.0,60.0,-100.00,West,274,3.0,4.0,94,0.00,,,-99.99,5.000000,,2013-09-08 14:22:00,
2013-09-08 08:30:00,65.0,61.0,-100.00,WNW,287,5.0,7.0,88,0.00,,,0.01,126.000000,,2013-09-08 14:30:00,
2013-09-08 08:52:00,65.0,61.0,-100.00,WNW,287,5.0,7.0,88,0.00,,,0.01,126.000000,,2013-09-08 14:52:00,
2013-09-08 09:02:00,65.0,61.0,-100.00,WNW,287,5.0,7.0,88,0.00,,,0.01,126.000000,,2013-09-08 15:02:00,
2013-09-08 09:12:00,65.0,61.0,-100.00,WNW,287,5.0,7.0,88,0.00,,,0.01,126.000000,,2013-09-08 15:12:00,
2013-09-08 09:23:00,65.0,61.0,-100.00,WNW,287,5.0,7.0,88,0.00,,,0.01,126.000000,,2013-09-08 15:23:00,
2013-09-08 09:30:00,67.0,59.0,-100.00,WNW,287,4.0,7.0,76,0.00,,,0.01,328.000000,,2013-09-08 15:30:00,
2013-09-08 09:55:00,67.0,59.0,-100.00,WNW,287,4.0,7.0,76,0.00,,,0.01,328.000000,,2013-09-08 15:55:00,
2013-09-08 10:04:00,67.0,59.0,-100.00,WNW,287,4.0,7.0,76,0.00,,,0.01,328.000000,,2013-09-08 16:04:00,
2013-09-08 10:14:00,67.0,59.0,-100.00,WNW,287,4.0,7.0,76,0.00,,,0.01,328.000000,,2013-09-08 16:14:00,
2013-09-08 10:23:00,67.0,59.0,-100.00,WNW,287,4.0,7.0,76,0.00,,,0.01,328.000000,,2013-09-08 16:23:00,
2013-09-08 10:30:00,71.0,59.0,-100.00,WNW,298,4.0,7.0,67,0.00,,,0.01,480.000000,,2013-09-08 16:30:00,
2013-09-08 10:53:00,71.0,59.0,-100.00,WNW,298,4.0,7.0,67,0.00,,,0.01,480.000000,,2013-09-08 16:53:00,
2013-09-08 11:03:00,71.0,59.0,-100.00,WNW,298,4.0,7.0,67,0.00,,,0.01,480.000000,,2013-09-08 17:03:00,
2013-09-08 11:12:00,71.0,59.0,-100.00,WNW,298,4.0,7.0,67,0.00,,,0.01,480.000000,,2013-09-08 17:12:00,
2013-09-08 11:23:00,71.0,59.0,-100.00,WNW,298,4.0,7.0,67,0.00,,,0.01,480.000000,,2013-09-08 17:23:00,
2013-09-08 11:30:00,74.0,59.0,-100.00,NW,312,5.0,10.0,60,0.00,,,0.01,685.000000,,2013-09-08 17:30:00,
2013-09-08 11:53:00,74.0,59.0,-100.00,NW,312,5.0,10.0,60,0.00,,,0.01,685.000000,,2013-09-08 17:53:00,
2013-09-08 12:02:00,74.0,59.0,-100.00,NW,312,5.0,10.0,60,0.00,,,0.01,685.000000,,2013-09-08 18:02:00,
2013-09-08 12:13:00,74.0,59.0,-100.00,NW,312,5.0,10.0,60,0.00,,,0.01,685.000000,,2013-09-08 18:13:00,
2013-09-08 12:22:00,74.0,59.0,-100.00,NW,312,5.0,10.0,60,0.00,,,0.01,685.000000,,2013-09-08 18:22:00,
2013-09-08 12:30:00,70.0,54.0,-100.00,West,276,8.0,15.0,56,0.00,,,0.01,390.000000,,2013-09-08 18:30:00,
2013-09-08 12:52:00,70.0,54.0,-100.00,West,276,8.0,15.0,56,0.00,,,0.01,390.000000,,2013-09-08 18:52:00,
2013-09-08 13:01:00,70.0,54.0,-100.00,West,276,8.0,15.0,56,0.00,,,0.01,390.000000,,2013-09-08 19:01:00,
2013-09-08 13:12:00,70.0,54.0,-100.00,West,276,8.0,15.0,56,0.00,,,0.01,390.000000,,2013-09-08 19:12:00,
2013-09-08 13:22:00,70.0,54.0,-100.00,West,276,8.0,15.0,56,0.00,,,0.01,390.000000,,2013-09-08 19:22:00,
2013-09-08 13:30:00,64.0,51.0,-100.00,NW,315,13.0,24.0,62,0.00,,,0.01,163.000000,,2013-09-08 19:30:00,
2013-09-08 13:52:00,64.0,51.0,-100.00,NW,315,13.0,24.0,62,0.00,,,0.01,163.000000,,2013-09-08 19:52:00,
2013-09-08 14:03:00,64.0,51.0,-100.00,NW,315,13.0,24.0,62,0.00,,,0.01,163.000000,,2013-09-08 20:03:00,
2013-09-08 14:11:00,64.0,51.0,-100.00,NW,315,13.0,24.0,62,0.00,,,0.01,163.000000,,2013-09-08 20:11:00,
2013-09-08 14:22:00,64.0,51.0,-100.00,NW,315,13.0,24.0,62,0.00,,,0.01,163.000000,,2013-09-08 20:22:00,
2013-09-08 14:30:00,68.0,46.0,-100.00,NW,325,6.0,20.0,46,0.00,,,0.01,757.000000,,2013-09-08 20:30:00,
2013-09-08 14:53:00,68.0,46.0,-100.00,NW,325,6.0,20.0,46,0.00,,,0.01,757.000000,,2013-09-08 20:53:00,
2013-09-08 15:02:00,68.0,46.0,-100.00,NW,325,6.0,20.0,46,0.00,,,0.01,757.000000,,2013-09-08 21:02:00,
2013-09-08 15:12:00,68.0,46.0,-100.00,NW,325,6.0,20.0,46,0.00,,,0.01,757.000000,,2013-09-08 21:12:00,
2013-09-08 15:22:00,68.0,46.0,-100.00,NW,325,6.0,20.0,46,0.00,,,0.01,757.000000,,2013-09-08 21:22:00,
2013-09-08 15:30:00,73.0,49.0,-100.00,SSW,198,5.0,14.0,43,0.00,,,0.01,436.000000,,2013-09-08 21:30:00,
2013-09-08 15:54:00,73.0,49.0,-100.00,SSW,198,5.0,14.0,43,0.00,,,0.01,436.000000,,2013-09-08 21:54:00,
2013-09-08 16:04:00,73.0,49.0,-100.00,SSW,198,5.0,14.0,43,0.00,,,0.01,436.000000,,2013-09-08 22:04:00,
2013-09-08 16:13:00,73.0,49.0,-100.00,SSW,198,5.0,14.0,43,0.00,,,0.01,436.000000,,2013-09-08 22:13:00,
2013-09-08 16:24:00,73.0,49.0,-100.00,SSW,198,5.0,14.0,43,0.00,,,0.01,436.000000,,2013-09-08 22:24:00,
2013-09-08 16:30:00,70.0,44.0,-100.00,West,266,9.0,16.0,39,0.00,,,0.01,222.000000,,2013-09-08 22:30:00,
2013-09-08 16:53:00,70.0,44.0,-100.00,West,266,9.0,16.0,39,0.00,,,0.01,222.000000,,2013-09-08 22:53:00,
2013-09-08 17:04:00,70.0,44.0,-100.00,West,266,9.0,16.0,39,0.00,,,0.01,222.000000,,2013-09-08 23:04:00,
2013-09-08 17:12:00,70.0,44.0,-100.00,West,266,9.0,16.0,39,0.00,,,0.01,222.000000,,2013-09-08 23:12:00,
2013-09-08 17:22:00,70.0,44.0,-100.00,West,266,9.0,16.0,39,0.00,,,0.01,222.000000,,2013-09-08 23:22:00,
2013-09-08 17:30:00,72.0,45.0,-100.00,SW,235,8.0,16.0,38,0.00,,,0.01,248.000000,,2013-09-08 23:30:00,
2013-09-08 17:52:00,72.0,45.0,-100.00,SW,235,8.0,16.0,38,0.00,,,0.01,248.000000,,2013-09-08 23:52:00,
2013-09-08 18:02:00,72.0,45.0,-100.00,SW,235,8.0,16.0,38,0.00,,,0.01,248.000000,,2013-09-09 00:02:00,
2013-09-08 18:11:00,72.0,45.0,-100.00,SW,235,8.0,16.0,38,0.00,,,0.01,248.000000,,2013-09-09 00:11:00,
2013-09-08 18:21:00,72.0,45.0,-100.00,SW,235,8.0,16.0,38,0.00,,,0.01,248.000000,,2013-09-09 00:21:00,
2013-09-08 18:30:00,71.0,42.0,-100.00,WSW,248,13.0,18.0,35,0.00,,,0.01,397.000000,,2013-09-09 00:30:00,
2013-09-08 18:52:00,71.0,42.0,-100.00,WSW,248,13.0,18.0,35,0.00,,,0.01,397.000000,,2013-09-09 00:52:00,
2013-09-08 19:01:00,71.0,42.0,-100.00,WSW,248,13.0,18.0,35,0.00,,,0.01,397.000000,,2013-09-09 01:01:00,
2013-09-08 19:12:00,71.0,42.0,-100.00,WSW,248,13.0,18.0,35,0.00,,,0.01,397.000000,,2013-09-09 01:12:00,
2013-09-08 19:21:00,71.0,42.0,-100.00,WSW,248,13.0,18.0,35,0.00,,,0.01,397.000000,,2013-09-09 01:21:00,
2013-09-08 19:30:00,63.0,42.0,-100.00,NW,326,10.0,22.0,46,0.00,,,0.01,47.000000,,2013-09-09 01:30:00,
2013-09-08 19:52:00,63.0,42.0,-100.00,NW,326,10.0,22.0,46,0.00,,,0.01,47.000000,,2013-09-09 01:52:00,
2013-09-08 20:02:00,63.0,42.0,-100.00,NW,326,10.0,22.0,46,0.00,,,0.01,47.000000,,2013-09-09 02:02:00,
2013-09-08 20:11:00,63.0,42.0,-100.00,NW,326,10.0,22.0,46,0.00,,,0.01,47.000000,,2013-09-09 02:11:00,
2013-09-08 20:21:00,63.0,42.0,-100.00,NW,326,10.0,22.0,46,0.00,,,0.01,47.000000,,2013-09-09 02:21:00,
2013-09-08 20:30:00,57.0,44.0,-100.00,ENE,71,2.0,11.0,61,0.00,,,0.00,4.000000,,2013-09-09 02:30:00,
2013-09-08 20:53:00,57.0,44.0,-100.00,ENE,71,2.0,11.0,61,0.00,,,0.00,4.000000,,2013-09-09 02:53:00,
2013-09-08 21:02:00,57.0,44.0,-100.00,ENE,71,2.0,11.0,61,0.00,,,0.00,4.000000,,2013-09-09 03:02:00,
2013-09-08 21:12:00,57.0,44.0,-100.00,ENE,71,2.0,11.0,61,0.00,,,0.00,4.000000,,2013-09-09 03:12:00,
2013-09-08 21:22:00,57.0,44.0,-100.00,ENE,71,2.0,11.0,61,0.00,,,0.00,4.000000,,2013-09-09 03:22:00,
2013-09-08 21:30:00,57.0,48.0,-100.00,NW,306,4.0,6.0,71,0.00,,,0.00,0.000000,,2013-09-09 03:30:00,
2013-09-08 21:55:00,57.0,48.0,-100.00,NW,306,4.0,6.0,71,0.00,,,0.00,0.000000,,2013-09-09 03:55:00,
2013-09-08 22:03:00,57.0,48.0,-100.00,NW,306,4.0,6.0,71,0.00,,,0.00,0.000000,,2013-09-09 04:03:00,
2013-09-08 22:14:00,57.0,48.0,-100.00,NW,306,4.0,6.0,71,0.00,,,0.00,0.000000,,2013-09-09 04:14:00,
2013-09-08 22:24:00,57.0,48.0,-100.00,NW,306,4.0,6.0,71,0.00,,,0.00,0.000000,,2013-09-09 04:24:00,
2013-09-08 22:30:00,57.0,45.0,-100.00,WNW,298,5.0,9.0,65,0.00,,,0.00,0.000000,,2013-09-09 04:30:00,
2013-09-08 22:54:00,57.0,45.0,-100.00,WNW,298,5.0,9.0,65,0.00,,,0.00,0.000000,,2013-09-09 04:54:00,
2013-09-08 23:03:00,57.0,45.0,-100.00,WNW,298,5.0,9.0,65,0.00,,,0.00,0.000000,,2013-09-09 05:03:00,
2013-09-08 23:13:00,57.0,45.0,-100.00,WNW,298,5.0,9.0,65,0.00,,,0.00,0.000000,,2013-09-09 05:13:00,
2013-09-08 23:23:00,57.0,45.0,-100.00,WNW,298,5.0,9.0,65,0.00,,,0.00,0.000000,,2013-09-09 05:23:00,
2013-09-08 23:30:00,55.0,45.0,-100.00,West,276,4.0,9.0,69,0.00,,,0.00,0.000000,,2013-09-09 05:30:00,
2013-09-08 23:53:00,55.0,45.0,-100.00,West,276,4.0,9.0,69,0.00,,,0.00,0.000000,,2013-09-09 05:53:00,